QPF
0.00 0.00 0.00 0.00 0.00 0.00 0.00 0.00 0.00 0.00 0.00 0.00 0.00 0.00 0.00 0.00 0.00 0.00 0.00 0.00 0.00 0.00 0.00 0.00 0.00 0.00 0.00 0.00 0.00 0.00 0.00 0.00 0.00 0.00 0.01 0.01 0.03 0.04 0.05 0.06 0.06 0.05 0.05 0.04 0.03 0.01 0.00 0.00 0.00
0.00 0.00 0.00 0.00 0.00 0.00 0.00 0.00 0.00 0.00 0.00 0.00 0.00 0.00 0.00 0.00 0.00 0.00 0.00 0.00 0.00 0.00 0.00 0.00 0.00 0.00 0.00 0.00 0.00 0.00 0.00 0.00 0.00 0.00 0.00 0.00 0.02 0.03 0.04 0.04 0.05 0.04 0.04 0.04 0.04 0.03 0.02 0.01 0.00
0.00 0.00 0.00 0.00 0.00 0.00 0.00 0.00 0.00 0.00 0.00 0.00 0.00 0.00 0.00 0.00 0.00 0.00 0.00 0.00 0.00 0.00 0.00 0.00 0.00 0.00 0.00 0.00 0.00 0.00 0.00 0.00 0.00 0.00 0.00 0.00 0.00 0.02 0.02 0.03 0.03 0.03 0.03 0.03 0.03 0.03 0.03 0.03 0.02
0.00 0.00 0.00 0.00 0.00 0.00 0.00 0.00 0.00 0.00 0.00 0.00 0.00 0.00 0.00 0.00 0.00 0.00 0.00 0.00 0.00 0.00 0.00 0.00 0.00 0.00 0.00 0.00 0.00 0.00 0.00 0.00 0.00 0.00 0.00 0.00 0.00 0.00 0.00 0.01 0.01 0.01 0.02 0.03 0.03 0.03 0.04 0.05 0.04
0.00 0.00 0.00 0.00 0.00 0.00 0.00 0.00 0.00 0.00 0.00 0.00 0.00 0.00 0.00 0.00 0.00 0.00 0.00 0.00 0.00 0.00 0.00 0.00 0.00 0.00 0.00 0.00 0.00 0.00 0.00 0.00 0.00 0.00 0.00 0.00 0.00 0.00 0.00 0.00 0.00 0.00 0.01 0.02 0.03 0.03 0.04 0.05 0.05
0.00 0.00 0.00 0.00 0.00 0.00 0.00 0.00 0.00 0.00 0.00 0.00 0.00 0.00 0.00 0.00 0.00 0.00 0.00 0.00 0.00 0.00 0.00 0.00 0.00 0.00 0.00 0.00 0.00 0.00 0.00 0.00 0.00 0.00 0.00 0.00 0.00 0.00 0.00 0.00 0.00 0.00 0.00 0.00 0.01 0.02 0.03 0.04 0.05
0.00 0.00 0.00 0.00 0.00 0.00 0.00 0.00 0.00 0.00 0.00 0.00 0.00 0.00 0.00 0.00 0.00 0.00 0.00 0.00 0.00 0.00 0.00 0.00 0.00 0.00 0.00 0.00 0.00 0.00 0.00 0.00 0.00 0.00 0.00 0.00 0.00 0.00 0.00 0.00 0.00 0.00 0.00 0.00 0.00 0.01 0.02 0.02 0.03
0.00 0.00 0.00 0.00 0.00 0.00 0.00 0.00 0.00 0.00 0.00 0.00 0.00 0.00 0.00 0.00 0.00 0.00 0.00 0.00 0.00 0.00 0.00 0.00 0.00 0.00 0.00 0.00 0.00 0.00 0.00 0.00 0.00 0.00 0.00 0.00 0.00 0.00 0.00 0.00 0.00 0.00 0.00 0.00 0.00 0.00 0.01 0.01 0.01
0.00 0.00 0.00 0.00 0.00 0.00 0.00 0.00 0.00 0.00 0.00 0.00 0.00 0.00 0.00 0.00 0.00 0.00 0.00 0.00 0.00 0.00 0.00 0.00 0.00 0.00 0.00 0.00 0.00 0.00 0.00 0.00 0.00 0.00 0.00 0.00 0.00 0.00 0.00 0.00 0.00 0.00 0.00 0.00 0.00 0.00 0.00 0.00 0.00
0.00 0.00 0.00 0.00 0.00 0.00 0.00 0.00 0.00 0.00 0.00 0.00 0.00 0.00 0.00 0.00 0.00 0.00 0.00 0.00 0.00 0.00 0.00 0.00 0.00 0.00 0.00 0.00 0.00 0.00 0.00 0.00 0.00 0.00 0.00 0.00 0.00 0.00 0.00 0.00 0.00 0.00 0.00 0.00 0.00 0.00 0.00 0.00 0.00
0.00 0.00 0.00 0.00 0.00 0.00 0.00 0.00 0.00 0.00 0.00 0.00 0.00 0.00 0.00 0.00 0.00 0.00 0.00 0.00 0.00 0.00 0.00 0.00 0.00 0.00 0.00 0.00 0.00 0.00 0.00 0.00 0.00 0.00 0.00 0.00 0.00 0.00 0.00 0.00 0.00 0.00 0.00 0.00 0.00 0.00 0.00 0.00 0.00
0.00 0.00 0.00 0.00 0.00 0.00 0.00 0.00 0.00 0.00 0.00 0.00 0.00 0.00 0.00 0.00 0.00 0.00 0.00 0.00 0.00 0.00 0.00 0.00 0.00 0.00 0.00 0.00 0.00 0.00 0.00 0.00 0.00 0.00 0.00 0.00 0.00 0.00 0.00 0.00 0.00 0.00 0.00 0.00 0.00 0.00 0.00 0.00 0.00
0.00 0.00 0.00 0.00 0.00 0.00 0.00 0.00 0.00 0.00 0.00 0.00 0.00 0.00 0.00 0.00 0.00 0.00 0.00 0.00 0.00 0.00 0.00 0.00 0.00 0.00 0.00 0.00 0.00 0.00 0.00 0.00 0.00 0.00 0.00 0.00 0.00 0.00 0.00 0.00 0.00 0.00 0.00 0.00 0.00 0.00 0.00 0.00 0.00
0.00 0.00 0.00 0.00 0.00 0.00 0.00 0.00 0.00 0.00 0.00 0.00 0.00 0.00 0.00 0.00 0.00 0.00 0.00 0.00 0.00 0.00 0.00 0.00 0.00 0.00 0.00 0.00 0.00 0.00 0.00 0.00 0.00 0.00 0.00 0.00 0.00 0.00 0.00 0.00 0.00 0.00 0.00 0.00 0.00 0.00 0.00 0.00 0.00
0.00 0.00 0.00 0.00 0.00 0.00 0.00 0.00 0.00 0.00 0.00 0.00 0.00 0.00 0.00 0.00 0.00 0.00 0.00 0.00 0.00 0.00 0.00 0.00 0.00 0.00 0.00 0.00 0.00 0.00 0.00 0.00 0.00 0.00 0.00 0.00 0.00 0.00 0.00 0.00 0.00 0.00 0.00 0.00 0.00 0.00 0.00 0.00 0.00
0.00 0.00 0.00 0.00 0.00 0.00 0.00 0.00 0.00 0.00 0.00 0.00 0.00 0.00 0.00 0.00 0.00 0.00 0.00 0.00 0.00 0.00 0.00 0.00 0.00 0.00 0.00 0.00 0.00 0.00 0.00 0.00 0.00 0.00 0.00 0.00 0.00 0.00 0.00 0.00 0.00 0.00 0.00 0.00 0.00 0.00 0.00 0.00 0.00
0.00 0.00 0.00 0.00 0.00 0.00 0.00 0.00 0.00 0.00 0.00 0.00 0.00 0.00 0.00 0.00 0.00 0.00 0.00 0.00 0.00 0.00 0.00 0.00 0.00 0.00 0.00 0.00 0.00 0.00 0.00 0.00 0.00 0.00 0.00 0.00 0.00 0.00 0.00 0.00 0.00 0.00 0.00 0.00 0.00 0.00 0.00 0.00 0.00
0.00 0.00 0.00 0.00 0.00 0.00 0.00 0.00 0.00 0.00 0.00 0.00 0.00 0.00 0.00 0.00 0.00 0.00 0.00 0.00 0.00 0.00 0.00 0.00 0.00 0.00 0.00 0.00 0.00 0.00 0.00 0.00 0.00 0.00 0.00 0.00 0.00 0.00 0.00 0.00 0.00 0.00 0.00 0.00 0.00 0.00 0.00 0.00 0.00
0.00 0.00 0.00 0.00 0.00 0.00 0.00 0.00 0.00 0.00 0.00 0.00 0.00 0.00 0.00 0.00 0.00 0.00 0.00 0.00 0.00 0.00 0.00 0.00 0.00 0.00 0.00 0.00 0.00 0.00 0.00 0.00 0.00 0.00 0.00 0.00 0.00 0.00 0.00 0.00 0.00 0.00 0.01 0.00 0.00 0.00 0.00 0.00 0.00
0.00 0.00 0.00 0.00 0.00 0.00 0.00 0.00 0.00 0.00 0.00 0.00 0.00 0.00 0.00 0.00 0.00 0.00 0.00 0.00 0.00 0.00 0.00 0.00 0.00 0.00 0.00 0.00 0.00 0.00 0.00 0.00 0.00 0.00 0.00 0.00 0.00 0.00 0.00 0.00 0.00 0.00 0.00 0.00 0.00 0.00 0.02 0.01 0.01
0.00 0.00 0.00 0.00 0.00 0.00 0.00 0.00 0.00 0.00 0.00 0.00 0.00 0.00 0.00 0.00 0.00 0.00 0.00 0.00 0.00 0.00 0.00 0.00 0.00 0.00 0.00 0.00 0.00 0.00 0.00 0.00 0.00 0.00 0.00 0.00 0.00 0.00 0.00 0.00 0.00 0.00 0.00 0.00 0.00 0.01 0.02 0.02 0.01
0.00 0.00 0.00 0.00 0.00 0.00 0.00 0.00 0.00 0.00 0.00 0.00 0.00 0.00 0.00 0.00 0.00 0.00 0.00 0.00 0.00 0.00 0.00 0.00 0.00 0.00 0.00 0.00 0.00 0.00 0.00 0.00 0.00 0.00 0.00 0.00 0.00 0.00 0.00 0.00 0.00 0.00 0.00 0.00 0.00 0.00 0.01 0.03 0.03
0.00 0.00 0.00 0.00 0.00 0.00 0.00 0.00 0.00 0.00 0.00 0.00 0.00 0.00 0.00 0.00 0.00 0.00 0.00 0.00 0.00 0.00 0.00 0.00 0.00 0.00 0.00 0.00 0.00 0.00 0.00 0.00 0.00 0.00 0.00 0.00 0.00 0.00 0.00 0.00 0.00 0.00 0.00 0.00 0.00 0.00 0.00 0.02 0.03
0.00 0.00 0.00 0.00 0.00 0.00 0.00 0.00 0.00 0.00 0.00 0.00 0.00 0.00 0.00 0.00 0.00 0.00 0.00 0.00 0.00 0.00 0.00 0.00 0.00 0.00 0.00 0.00 0.00 0.00 0.00 0.00 0.00 0.00 0.00 0.00 0.00 0.00 0.00 0.00 0.00 0.00 0.00 0.00 0.00 0.00 0.00 0.01 0.01
0.00 0.00 0.00 0.00 0.00 0.00 0.00 0.00 0.00 0.00 0.00 0.00 0.00 0.00 0.00 0.00 0.00 0.00 0.00 0.00 0.00 0.00 0.00 0.00 0.00 0.00 0.00 0.00 0.00 0.00 0.00 0.00 0.00 0.00 0.00 0.00 0.00 0.00 0.00 0.00 0.00 0.00 0.00 0.00 0.00 0.00 0.00 0.00 0.01
0.00 0.00 0.00 0.00 0.00 0.00 0.00 0.00 0.00 0.00 0.00 0.00 0.00 0.00 0.00 0.00 0.00 0.00 0.00 0.00 0.00 0.00 0.00 0.00 0.00 0.00 0.00 0.00 0.00 0.00 0.00 0.00 0.00 0.00 0.00 0.00 0.00 0.00 0.00 0.00 0.00 0.00 0.00 0.00 0.00 0.00 0.00 0.01 0.01
0.00 0.00 0.00 0.00 0.00 0.00 0.00 0.00 0.00 0.00 0.00 0.00 0.00 0.00 0.00 0.00 0.00 0.00 0.00 0.00 0.00 0.00 0.00 0.00 0.00 0.00 0.00 0.00 0.00 0.00 0.00 0.00 0.00 0.00 0.00 0.00 0.00 0.00 0.00 0.00 0.00 0.00 0.00 0.00 0.00 0.00 0.01 0.01 0.02
0.00 0.00 0.00 0.00 0.00 0.00 0.00 0.00 0.00 0.00 0.00 0.00 0.00 0.00 0.00 0.00 0.00 0.00 0.00 0.00 0.00 0.00 0.00 0.00 0.00 0.00 0.00 0.00 0.00 0.00 0.00 0.00 0.00 0.00 0.00 0.00 0.00 0.00 0.00 0.00 0.00 0.00 0.00 0.00 0.00 0.00 0.01 0.02 0.02
0.00 0.00 0.00 0.00 0.00 0.00 0.00 0.00 0.00 0.00 0.00 0.00 0.00 0.00 0.00 0.00 0.00 0.00 0.00 0.00 0.00 0.00 0.00 0.00 0.00 0.00 0.00 0.00 0.00 0.00 0.00 0.00 0.00 0.00 0.00 0.00 0.00 0.00 0.00 0.00 0.00 0.00 0.00 0.00 0.00 0.00 0.01 0.02 0.02
0.00 0.00 0.00 0.00 0.00 0.00 0.00 0.00 0.00 0.00 0.00 0.00 0.00 0.00 0.00 0.00 0.00 0.00 0.00 0.00 0.00 0.00 0.00 0.00 0.00 0.00 0.00 0.00 0.00 0.00 0.00 0.00 0.00 0.00 0.00 0.00 0.00 0.00 0.00 0.00 0.00 0.00 0.00 0.00 0.00 0.00 0.01 0.02 0.03
MSLP
1014.40 1015.47 1017.04 1018.98 1021.09 1023.18 1025.04 1026.53 1027.59 1028.23 1028.57 1028.73 1028.85 1029.05 1029.37 1029.81 1030.28 1030.68 1030.90 1030.86 1030.53 1029.94 1029.15 1028.27 1027.39 1026.60 1025.93 1025.38 1024.92 1024.49 1024.05 1023.58 1023.08 1022.56 1022.06 1021.59 1021.18 1020.81 1020.45 1020.08 1019.68 1019.21 1018.70 1018.17 1017.65 1017.18 1016.76 1016.42 1016.13
1015.14 1016.63 1018.56 1020.76 1022.99 1025.04 1026.74 1027.99 1028.76 1029.12 1029.23 1029.25 1029.31 1029.52 1029.90 1030.40 1030.93 1031.36 1031.58 1031.51 1031.14 1030.50 1029.68 1028.79 1027.92 1027.14 1026.48 1025.95 1025.48 1025.06 1024.63 1024.17 1023.69 1023.20 1022.73 1022.30 1021.90 1021.52 1021.13 1020.70 1020.20 1019.65 1019.05 1018.43 1017.84 1017.29 1016.82 1016.42 1016.08
1016.04 1017.89 1020.10 1022.45 1024.70 1026.63 1028.11 1029.08 1029.57 1029.69 1029.63 1029.56 1029.61 1029.86 1030.31 1030.89 1031.46 1031.91 1032.11 1032.01 1031.61 1030.95 1030.13 1029.26 1028.42 1027.69 1027.07 1026.56 1026.10 1025.67 1025.23 1024.77 1024.30 1023.83 1023.38 1022.96 1022.57 1022.18 1021.76 1021.27 1020.71 1020.08 1019.41 1018.72 1018.07 1017.47 1016.94 1016.49 1016.10
1017.08 1019.20 1021.57 1023.96 1026.12 1027.88 1029.11 1029.81 1030.05 1030.00 1029.84 1029.75 1029.84 1030.16 1030.69 1031.32 1031.92 1032.35 1032.53 1032.39 1031.96 1031.31 1030.52 1029.71 1028.94 1028.28 1027.71 1027.23 1026.78 1026.33 1025.87 1025.38 1024.89 1024.41 1023.96 1023.56 1023.17 1022.77 1022.34 1021.82 1021.22 1020.55 1019.83 1019.09 1018.39 1017.75 1017.18 1016.68 1016.23
1018.22 1020.50 1022.92 1025.24 1027.24 1028.76 1029.74 1030.21 1030.29 1030.14 1029.97 1029.92 1030.10 1030.51 1031.11 1031.77 1032.36 1032.75 1032.87 1032.69 1032.25 1031.61 1030.89 1030.16 1029.50 1028.92 1028.42 1027.96 1027.51 1027.03 1026.52 1025.99 1025.45 1024.95 1024.50 1024.09 1023.71 1023.32 1022.89 1022.37 1021.76 1021.07 1020.33 1019.57 1018.84 1018.16 1017.55 1017.00 1016.48
1019.45 1021.77 1024.12 1026.28 1028.05 1029.33 1030.08 1030.38 1030.37 1030.22 1030.11 1030.18 1030.48 1030.99 1031.64 1032.30 1032.84 1033.16 1033.20 1032.97 1032.52 1031.92 1031.28 1030.66 1030.10 1029.62 1029.19 1028.75 1028.29 1027.77 1027.20 1026.60 1026.02 1025.48 1025.00 1024.60 1024.23 1023.86 1023.44 1022.94 1022.35 1021.66 1020.92 1020.16 1019.41 1018.71 1018.05 1017.44 1016.86
1020.73 1022.99 1025.18 1027.11 1028.62 1029.65 1030.22 1030.42 1030.40 1030.33 1030.36 1030.57 1031.01 1031.61 1032.29 1032.92 1033.38 1033.61 1033.56 1033.28 1032.82 1032.27 1031.72 1031.21 1030.77 1030.38 1030.00 1029.58 1029.10 1028.53 1027.89 1027.23 1026.59 1026.01 1025.52 1025.12 1024.76 1024.40 1024.01 1023.54 1022.96 1022.30 1021.57 1020.81 1020.06 1019.33 1018.64 1017.97 1017.33
1022.03 1024.15 1026.11 1027.76 1029.01 1029.82 1030.25 1030.41 1030.44 1030.51 1030.71 1031.09 1031.66 1032.34 1033.02 1033.59 1033.96 1034.07 1033.94 1033.61 1033.16 1032.67 1032.21 1031.81 1031.48 1031.16 1030.83 1030.42 1029.90 1029.28 1028.59 1027.88 1027.19 1026.59 1026.09 1025.68 1025.33 1024.99 1024.61 1024.15 1023.59 1022.94 1022.23 1021.47 1020.71 1019.96 1019.24 1018.53 1017.83
1023.30 1025.21 1026.91 1028.28 1029.28 1029.90 1030.24 1030.41 1030.54 1030.76 1031.14 1031.69 1032.36 1033.08 1033.74 1034.23 1034.50 1034.51 1034.31 1033.95 1033.53 1033.11 1032.74 1032.44 1032.19 1031.94 1031.63 1031.21 1030.66 1030.01 1029.28 1028.53 1027.83 1027.21 1026.71 1026.29 1025.94 1025.59 1025.21 1024.74 1024.18 1023.54 1022.82 1022.07 1021.31 1020.55 1019.80 1019.06 1018.31
1024.49 1026.18 1027.61 1028.71 1029.47 1029.95 1030.23 1030.44 1030.69 1031.07 1031.60 1032.27 1033.02 1033.75 1034.36 1034.77 1034.94 1034.88 1034.64 1034.29 1033.91 1033.56 1033.28 1033.07 1032.88 1032.66 1032.35 1031.91 1031.35 1030.66 1029.92 1029.16 1028.47 1027.86 1027.36 1026.95 1026.58 1026.20 1025.79 1025.29 1024.70 1024.04 1023.32 1022.57 1021.80 1021.04 1020.29 1019.52 1018.74
1025.56 1027.02 1028.19 1029.05 1029.63 1030.00 1030.26 1030.53 1030.88 1031.39 1032.03 1032.78 1033.56 1034.26 1034.80 1035.14 1035.24 1035.14 1034.89 1034.58 1034.27 1034.01 1033.81 1033.65 1033.50 1033.28 1032.96 1032.50 1031.91 1031.22 1030.49 1029.76 1029.10 1028.52 1028.03 1027.61 1027.22 1026.80 1026.32 1025.77 1025.14 1024.44 1023.70 1022.95 1022.19 1021.44 1020.68 1019.92 1019.12
1026.48 1027.73 1028.67 1029.34 1029.78 1030.08 1030.34 1030.66 1031.10 1031.69 1032.40 1033.18 1033.93 1034.57 1035.04 1035.31 1035.37 1035.27 1035.06 1034.82 1034.60 1034.42 1034.29 1034.18 1034.03 1033.79 1033.44 1032.95 1032.35 1031.67 1030.97 1030.29 1029.68 1029.15 1028.68 1028.26 1027.82 1027.35 1026.80 1026.18 1025.49 1024.75 1023.99 1023.23 1022.48 1021.75 1021.00 1020.24 1019.44
1027.23 1028.28 1029.04 1029.56 1029.91 1030.18 1030.46 1030.84 1031.34 1031.98 1032.70 1033.45 1034.14 1034.71 1035.11 1035.32 1035.37 1035.30 1035.17 1035.02 1034.90 1034.80 1034.73 1034.63 1034.46 1034.18 1033.79 1033.27 1032.66 1032.01 1031.36 1030.75 1030.20 1029.72 1029.28 1028.85 1028.37 1027.84 1027.22 1026.52 1025.77 1024.99 1024.22 1023.46 1022.73 1022.01 1021.28 1020.52 1019.71
1027.80 1028.68 1029.30 1029.72 1030.02 1030.29 1030.62 1031.05 1031.59 1032.24 1032.94 1033.63 1034.24 1034.72 1035.05 1035.24 1035.30 1035.28 1035.24 1035.20 1035.17 1035.15 1035.11 1035.00 1034.80 1034.47 1034.03 1033.48 1032.88 1032.26 1031.66 1031.13 1030.66 1030.23 1029.81 1029.36 1028.85 1028.25 1027.56 1026.81 1026.01 1025.21 1024.43 1023.68 1022.96 1022.26 1021.54 1020.78 1019.95
1028.20 1028.92 1029.43 1029.80 1030.09 1030.40 1030.79 1031.27 1031.85 1032.50 1033.16 1033.77 1034.29 1034.69 1034.96 1035.13 1035.22 1035.27 1035.32 1035.37 1035.43 1035.46 1035.44 1035.31 1035.06 1034.69 1034.20 1033.63 1033.04 1032.45 1031.92 1031.45 1031.04 1030.65 1030.24 1029.78 1029.23 1028.58 1027.85 1027.05 1026.24 1025.43 1024.66 1023.93 1023.23 1022.53 1021.80 1021.02 1020.15
1028.41 1029.00 1029.43 1029.77 1030.10 1030.48 1030.93 1031.48 1032.09 1032.74 1033.35 1033.90 1034.35 1034.68 1034.91 1035.07 1035.20 1035.31 1035.44 1035.57 1035.68 1035.75 1035.72 1035.57 1035.28 1034.85 1034.34 1033.76 1033.18 1032.64 1032.16 1031.74 1031.36 1030.99 1030.58 1030.10 1029.52 1028.83 1028.07 1027.26 1026.44 1025.65 1024.91 1024.20 1023.52 1022.82 1022.07 1021.25 1020.33
1028.46 1028.93 1029.30 1029.64 1030.02 1030.48 1031.02 1031.64 1032.30 1032.95 1033.54 1034.04 1034.43 1034.72 1034.92 1035.09 1035.25 1035.42 1035.60 1035.78 1035.93 1036.00 1035.95 1035.77 1035.44 1034.99 1034.46 1033.90 1033.34 1032.84 1032.40 1032.01 1031.65 1031.27 1030.84 1030.32 1029.70 1028.99 1028.22 1027.42 1026.63 1025.87 1025.16 1024.49 1023.82 1023.11 1022.33 1021.46 1020.48
1028.34 1028.70 1029.03 1029.40 1029.84 1030.38 1031.02 1031.72 1032.43 1033.10 1033.69 1034.16 1034.52 1034.79 1035.00 1035.18 1035.37 1035.57 1035.79 1035.99 1036.13 1036.19 1036.12 1035.92 1035.57 1035.12 1034.60 1034.06 1033.54 1033.07 1032.65 1032.27 1031.89 1031.48 1031.00 1030.43 1029.77 1029.05 1028.28 1027.51 1026.76 1026.06 1025.40 1024.76 1024.10 1023.39 1022.58 1021.65 1020.62
1028.09 1028.36 1028.66 1029.05 1029.56 1030.20 1030.92 1031.70 1032.46 1033.16 1033.76 1034.23 1034.60 1034.88 1035.10 1035.31 1035.52 1035.75 1035.97 1036.16 1036.29 1036.32 1036.23 1036.00 1035.65 1035.22 1034.73 1034.24 1033.76 1033.32 1032.92 1032.52 1032.09 1031.62 1031.08 1030.45 1029.75 1029.01 1028.26 1027.52 1026.84 1026.20 1025.59 1024.99 1024.35 1023.63 1022.79 1021.83 1020.76
1027.77 1027.96 1028.25 1028.67 1029.24 1029.94 1030.73 1031.56 1032.37 1033.10 1033.72 1034.22 1034.61 1034.92 1035.18 1035.42 1035.66 1035.90 1036.12 1036.29 1036.39 1036.39 1036.27 1036.03 1035.70 1035.30 1034.86 1034.42 1034.00 1033.58 1033.17 1032.74 1032.26 1031.71 1031.09 1030.40 1029.65 1028.90 1028.16 1027.48 1026.85 1026.27 1025.72 1025.16 1024.53 1023.82 1022.98 1022.00 1020.92
1027.45 1027.60 1027.87 1028.32 1028.92 1029.67 1030.50 1031.35 1032.18 1032.92 1033.56 1034.09 1034.52 1034.88 1035.20 1035.49 1035.76 1036.01 1036.23 1036.37 1036.44 1036.40 1036.25 1036.02 1035.71 1035.35 1034.97 1034.59 1034.21 1033.82 1033.40 1032.93 1032.38 1031.76 1031.05 1030.29 1029.51 1028.75 1028.03 1027.38 1026.80 1026.28 1025.78 1025.25 1024.66 1023.96 1023.12 1022.17 1021.11
1027.23 1027.34 1027.63 1028.08 1028.71 1029.45 1030.28 1031.12 1031.92 1032.65 1033.29 1033.85 1034.33 1034.75 1035.13 1035.49 1035.81 1036.08 1036.30 1036.42 1036.45 1036.38 1036.22 1035.98 1035.69 1035.38 1035.06 1034.73 1034.39 1034.02 1033.59 1033.07 1032.47 1031.77 1030.99 1030.18 1029.37 1028.59 1027.89 1027.27 1026.74 1026.25 1025.78 1025.28 1024.71 1024.03 1023.22 1022.30 1021.30
1027.17 1027.29 1027.58 1028.04 1028.65 1029.37 1030.14 1030.92 1031.67 1032.35 1032.98 1033.54 1034.06 1034.55 1035.01 1035.44 1035.83 1036.14 1036.36 1036.48 1036.49 1036.39 1036.21 1035.96 1035.69 1035.40 1035.12 1034.83 1034.52 1034.15 1033.71 1033.16 1032.51 1031.76 1030.94 1030.09 1029.25 1028.47 1027.77 1027.17 1026.65 1026.19 1025.73 1025.24 1024.67 1024.01 1023.24 1022.37 1021.44
1027.33 1027.47 1027.77 1028.23 1028.81 1029.46 1030.14 1030.82 1031.47 1032.08 1032.66 1033.23 1033.78 1034.33 1034.88 1035.39 1035.84 1036.21 1036.46 1036.58 1036.58 1036.46 1036.25 1036.00 1035.72 1035.44 1035.17 1034.89 1034.58 1034.22 1033.76 1033.20 1032.51 1031.74 1030.89 1030.03 1029.18 1028.40 1027.70 1027.09 1026.56 1026.08 1025.60 1025.09 1024.52 1023.87 1023.13 1022.32 1021.46
1027.67 1027.85 1028.18 1028.62 1029.15 1029.72 1030.29 1030.84 1031.37 1031.89 1032.41 1032.96 1033.53 1034.14 1034.77 1035.36 1035.90 1036.33 1036.62 1036.76 1036.75 1036.61 1036.38 1036.09 1035.79 1035.49 1035.21 1034.92 1034.60 1034.22 1033.75 1033.17 1032.48 1031.70 1030.86 1029.99 1029.15 1028.36 1027.64 1027.00 1026.43 1025.90 1025.37 1024.82 1024.22 1023.57 1022.86 1022.10 1021.31
1028.15 1028.38 1028.72 1029.15 1029.63 1030.10 1030.55 1030.97 1031.38 1031.80 1032.25 1032.77 1033.36 1034.02 1034.72 1035.40 1036.01 1036.51 1036.84 1037.01 1037.00 1036.84 1036.58 1036.26 1035.92 1035.58 1035.25 1034.92 1034.57 1034.17 1033.68 1033.10 1032.42 1031.65 1030.82 1029.96 1029.12 1028.32 1027.57 1026.88 1026.24 1025.62 1025.01 1024.39 1023.74 1023.07 1022.37 1021.66 1020.93
1028.64 1028.92 1029.29 1029.70 1030.12 1030.51 1030.85 1031.16 1031.46 1031.79 1032.19 1032.69 1033.30 1034.00 1034.75 1035.50 1036.18 1036.73 1037.11 1037.30 1037.30 1037.13 1036.84 1036.47 1036.08 1035.68 1035.29 1034.90 1034.50 1034.07 1033.56 1032.98 1032.30 1031.55 1030.75 1029.91 1029.07 1028.24 1027.44 1026.67 1025.93 1025.21 1024.50 1023.79 1023.08 1022.37 1021.68 1021.00 1020.34
1029.06 1029.37 1029.74 1030.14 1030.51 1030.83 1031.10 1031.33 1031.56 1031.84 1032.21 1032.70 1033.32 1034.06 1034.85 1035.65 1036.38 1036.98 1037.39 1037.59 1037.60 1037.42 1037.10 1036.69 1036.24 1035.78 1035.32 1034.87 1034.41 1033.93 1033.40 1032.80 1032.14 1031.41 1030.62 1029.79 1028.94 1028.08 1027.22 1026.36 1025.51 1024.67 1023.84 1023.04 1022.26 1021.52 1020.84 1020.19 1019.59
1029.29 1029.61 1029.98 1030.35 1030.69 1030.97 1031.20 1031.40 1031.61 1031.88 1032.26 1032.77 1033.42 1034.18 1035.01 1035.83 1036.58 1037.19 1037.62 1037.83 1037.84 1037.65 1037.32 1036.88 1036.38 1035.86 1035.34 1034.82 1034.31 1033.77 1033.21 1032.60 1031.93 1031.21 1030.44 1029.61 1028.74 1027.84 1026.90 1025.95 1024.99 1024.04 1023.10 1022.21 1021.37 1020.62 1019.94 1019.34 1018.79
1029.33 1029.61 1029.94 1030.28 1030.59 1030.86 1031.09 1031.32 1031.57 1031.89 1032.32 1032.88 1033.56 1034.34 1035.18 1036.00 1036.75 1037.35 1037.76 1037.97 1037.97 1037.79 1037.45 1036.99 1036.47 1035.91 1035.34 1034.77 1034.20 1033.62 1033.01 1032.38 1031.71 1030.99 1030.21 1029.37 1028.48 1027.54 1026.54 1025.50 1024.45 1023.40 1022.37 1021.42 1020.55 1019.79 1019.13 1018.58 1018.09
Thickness
5750 5753 5751 5736 5706 5674 5646 5643 5653 5648 5639 5634 5636 5633 5623 5618 5617 5607 5615 5620 5623 5625 5628 5631 5634 5637 5641 5644 5646 5649 5651 5652 5655 5656 5658 5661 5663 5666 5668 5672 5675 5679 5684 5688 5692 5697 5700 5703 5705
5750 5750 5738 5714 5677 5647 5636 5640 5643 5648 5641 5637 5632 5626 5621 5617 5617 5616 5614 5615 5618 5620 5621 5623 5626 5629 5633 5636 5638 5640 5642 5643 5645 5647 5648 5649 5651 5653 5655 5657 5661 5665 5669 5675 5680 5685 5690 5694 5698
5750 5743 5714 5683 5650 5634 5635 5639 5641 5645 5645 5640 5628 5623 5619 5615 5616 5612 5607 5610 5613 5613 5614 5616 5619 5622 5625 5628 5629 5631 5633 5634 5635 5636 5637 5638 5639 5641 5643 5644 5647 5651 5656 5660 5666 5671 5677 5682 5687
5747 5726 5698 5666 5639 5632 5631 5633 5646 5652 5645 5637 5630 5619 5614 5614 5610 5605 5605 5607 5608 5607 5607 5609 5612 5614 5616 5618 5619 5620 5622 5623 5624 5625 5626 5627 5627 5628 5629 5630 5633 5637 5641 5646 5651 5657 5663 5669 5675
5740 5709 5674 5645 5637 5633 5633 5638 5643 5642 5637 5630 5629 5614 5606 5603 5603 5602 5603 5603 5601 5600 5600 5601 5603 5604 5605 5606 5607 5607 5608 5609 5610 5610 5611 5612 5613 5613 5615 5616 5619 5623 5626 5631 5637 5643 5648 5654 5661
5720 5694 5659 5637 5637 5637 5635 5636 5638 5633 5630 5628 5622 5612 5598 5595 5598 5597 5597 5595 5593 5592 5591 5592 5592 5592 5593 5594 5594 5593 5593 5593 5594 5594 5595 5595 5596 5596 5598 5599 5602 5606 5610 5616 5621 5626 5632 5639 5645
5709 5680 5652 5642 5639 5638 5641 5640 5632 5627 5626 5623 5623 5609 5597 5591 5592 5592 5591 5588 5586 5584 5583 5582 5581 5580 5580 5579 5578 5577 5577 5576 5576 5576 5576 5576 5575 5576 5578 5578 5583 5588 5593 5598 5604 5609 5615 5623 5630
5712 5685 5659 5649 5641 5638 5639 5637 5630 5625 5622 5622 5617 5603 5591 5587 5587 5587 5585 5581 5578 5575 5572 5569 5568 5566 5565 5564 5561 5559 5557 5555 5554 5554 5554 5553 5551 5552 5554 5555 5560 5566 5572 5579 5584 5590 5596 5605 5613
5710 5673 5654 5654 5646 5639 5639 5633 5627 5619 5616 5611 5604 5595 5587 5585 5584 5581 5576 5572 5568 5564 5560 5557 5554 5551 5549 5547 5544 5540 5537 5534 5531 5530 5529 5527 5526 5526 5528 5530 5534 5540 5547 5554 5561 5568 5576 5585 5594
5691 5659 5656 5658 5651 5641 5637 5631 5623 5614 5608 5600 5592 5587 5584 5581 5576 5570 5564 5559 5556 5553 5550 5546 5542 5538 5535 5531 5527 5522 5517 5512 5509 5507 5506 5503 5501 5499 5500 5502 5506 5511 5518 5525 5535 5544 5552 5562 5572
5677 5658 5654 5651 5649 5642 5632 5626 5623 5611 5601 5596 5587 5581 5577 5573 5567 5561 5555 5550 5546 5542 5537 5533 5527 5521 5517 5512 5507 5501 5495 5489 5485 5481 5480 5477 5474 5473 5472 5474 5477 5483 5488 5495 5505 5515 5525 5535 5546
5669 5658 5656 5650 5648 5639 5630 5623 5614 5608 5600 5594 5587 5580 5572 5566 5560 5554 5548 5542 5536 5531 5525 5519 5511 5504 5497 5490 5483 5477 5469 5463 5457 5452 5449 5446 5443 5441 5441 5442 5446 5450 5455 5463 5473 5484 5495 5507 5519
5663 5652 5648 5643 5640 5632 5625 5616 5610 5600 5595 5589 5582 5574 5566 5560 5554 5547 5540 5533 5525 5518 5512 5505 5496 5487 5479 5470 5460 5452 5443 5434 5427 5420 5415 5411 5408 5407 5407 5408 5412 5417 5421 5429 5439 5451 5465 5478 5492
5660 5649 5641 5637 5633 5626 5617 5610 5606 5596 5590 5583 5575 5566 5560 5556 5549 5539 5530 5521 5512 5504 5497 5489 5480 5468 5458 5447 5436 5425 5414 5404 5396 5389 5384 5379 5376 5374 5374 5376 5380 5384 5388 5396 5406 5418 5432 5447 5462
5654 5642 5637 5633 5629 5620 5614 5603 5600 5595 5587 5578 5570 5562 5556 5549 5539 5528 5518 5508 5499 5490 5482 5472 5462 5449 5437 5425 5411 5397 5385 5375 5367 5361 5356 5352 5349 5347 5347 5348 5351 5354 5359 5367 5376 5387 5400 5416 5432
5650 5638 5631 5630 5626 5620 5614 5595 5597 5592 5583 5572 5562 5554 5547 5539 5527 5517 5508 5498 5488 5477 5467 5455 5443 5429 5415 5399 5383 5370 5359 5351 5344 5338 5334 5330 5328 5326 5325 5326 5327 5329 5334 5341 5349 5359 5371 5386 5402
5648 5638 5635 5630 5628 5622 5611 5593 5594 5590 5581 5566 5556 5547 5539 5529 5518 5509 5499 5488 5475 5463 5451 5438 5425 5410 5395 5379 5363 5350 5339 5331 5325 5319 5314 5311 5308 5306 5305 5307 5307 5309 5313 5318 5325 5334 5345 5359 5375
5652 5642 5635 5629 5630 5619 5603 5590 5589 5585 5572 5559 5552 5542 5533 5523 5510 5499 5488 5475 5461 5448 5434 5420 5406 5391 5376 5361 5349 5337 5326 5317 5309 5302 5297 5293 5290 5288 5287 5287 5287 5289 5292 5296 5302 5310 5321 5334 5350
5661 5645 5634 5630 5632 5616 5599 5587 5584 5575 5563 5556 5547 5536 5525 5513 5499 5487 5475 5461 5447 5433 5419 5405 5389 5373 5359 5347 5337 5328 5317 5307 5298 5289 5282 5276 5273 5270 5269 5267 5267 5268 5270 5274 5279 5287 5299 5311 5325
5654 5639 5632 5629 5630 5614 5595 5586 5581 5573 5564 5557 5545 5530 5517 5502 5489 5479 5464 5448 5432 5418 5404 5389 5371 5356 5342 5330 5319 5309 5300 5290 5282 5274 5267 5261 5257 5255 5253 5250 5250 5250 5252 5255 5259 5265 5275 5286 5298
5641 5641 5635 5628 5624 5614 5598 5590 5575 5572 5564 5552 5536 5523 5508 5494 5481 5469 5453 5436 5421 5406 5390 5374 5356 5341 5328 5317 5308 5298 5289 5278 5270 5264 5258 5251 5247 5243 5241 5238 5237 5237 5237 5238 5241 5246 5251 5262 5274
5643 5643 5639 5628 5613 5604 5603 5589 5570 5560 5554 5543 5527 5509 5496 5485 5472 5458 5443 5427 5411 5393 5375 5357 5341 5328 5316 5305 5295 5284 5275 5268 5260 5254 5249 5243 5237 5234 5231 5228 5227 5225 5225 5225 5226 5230 5232 5240 5252
5643 5645 5639 5632 5617 5606 5597 5585 5576 5555 5545 5535 5521 5503 5489 5476 5464 5450 5435 5418 5400 5380 5362 5344 5328 5316 5305 5294 5282 5271 5262 5254 5250 5245 5240 5235 5229 5224 5220 5218 5215 5214 5213 5213 5214 5216 5218 5223 5232
5644 5638 5633 5619 5608 5602 5600 5577 5584 5549 5545 5531 5515 5495 5481 5469 5457 5442 5425 5407 5387 5368 5349 5333 5319 5307 5296 5284 5272 5261 5252 5246 5242 5238 5232 5227 5221 5214 5208 5206 5202 5201 5200 5200 5202 5204 5206 5211 5218
5634 5624 5613 5613 5602 5601 5604 5584 5582 5554 5542 5528 5507 5486 5474 5462 5447 5431 5414 5395 5376 5357 5339 5324 5311 5299 5286 5274 5262 5251 5243 5237 5232 5227 5222 5216 5210 5203 5197 5192 5188 5186 5186 5187 5189 5191 5194 5200 5206
5628 5621 5606 5598 5587 5589 5595 5587 5565 5549 5537 5520 5500 5483 5470 5455 5438 5422 5404 5383 5363 5346 5330 5315 5302 5290 5277 5265 5253 5243 5235 5228 5222 5215 5207 5200 5193 5187 5181 5175 5172 5170 5169 5171 5174 5178 5182 5189 5195
5625 5609 5605 5586 5580 5573 5580 5576 5553 5543 5528 5506 5490 5476 5463 5448 5432 5412 5392 5372 5352 5335 5320 5306 5294 5281 5269 5257 5245 5237 5228 5221 5214 5205 5195 5185 5176 5169 5162 5157 5153 5152 5152 5154 5159 5164 5170 5177 5184
5624 5608 5588 5586 5575 5566 5570 5570 5564 5535 5522 5506 5486 5471 5458 5442 5422 5402 5380 5360 5342 5326 5311 5298 5285 5273 5261 5249 5237 5230 5221 5213 5205 5195 5184 5173 5161 5150 5142 5136 5132 5131 5132 5136 5143 5150 5158 5167 5175
5619 5611 5596 5576 5567 5558 5551 5568 5562 5538 5523 5502 5483 5467 5450 5433 5413 5390 5369 5351 5333 5318 5304 5292 5280 5268 5256 5244 5233 5223 5215 5206 5196 5184 5172 5160 5146 5132 5121 5113 5108 5108 5111 5118 5127 5137 5147 5158 5167
5615 5610 5592 5579 5571 5551 5536 5556 5550 5533 5518 5498 5477 5460 5443 5425 5403 5381 5361 5344 5327 5313 5300 5287 5276 5263 5251 5239 5228 5218 5209 5199 5188 5176 5162 5147 5131 5115 5102 5094 5091 5092 5097 5104 5115 5127 5139 5149 5159